Regional Weather Roundup
Issued by NWS Charleston, SC

Current Version | Previous Version | Graphics & Text | Print | Product List | Glossary On
Versions: 1 2 3 4 5 6 7 8 9 10 11 12 13 14 15 16 17 18 19 20 21 22 23 24 25 26 27 28 29 30 31 32 33 34 35 36 37 38 39 40 41 42 43 44 45 46 47 48 49 50
000 ASUS42 KCHS 030112 RWRCHS REGIONAL WEATHER ROUNDUP NATIONAL WEATHER SERVICE CHARLESTON SC 800 PM EST FRI DEC 02 2016 NOTE: "FAIR" INDICATES FEW OR NO CLOUDS BELOW 12,000 FEET WITH NO SIGNIFICANT WEATHER AND/OR OBSTRUCTIONS TO VISIBILITY. NOT ALL STATIONS ARE QUALITY CONTROLLED. USE DATA WITH CAUTION... ESPECIALLY DEWPOINT OBSERVATIONS. SCZ027-030-031-034>040-042>050-030200- ...SOUTHEAST SOUTH CAROLINA... CITY SKY/WX TMP DP RH WIND PRES REMARKS N CHARLESTON CLEAR 47 37 68 CALM 30.19R WATERFRONT PRK N/A 55 41 59 CALM 30.18R MOUNT PLEASANT NOT AVBL JOHNS ISLAND FAIR 45 41 87 CALM 30.19S PINOPOLIS N/A 55 45 67 NW5 30.10R MONCKS CORNER FAIR 41 37 87 CALM 30.19R SUMMERVILLE FAIR 43 41 93 CALM 30.21R BEAUFORT MCAS CLEAR 43 38 82 W5 30.21R BEAUFORT ARPT FAIR 46 41 81 CALM 30.20R HILTON HEAD IS NOT AVBL WALTERBORO CLEAR 45 N/A N/A CALM 30.21R ALLENDALE FAIR 45 37 76 CALM 30.20R ...SOUTHERN MIDLANDS AND PEE DEE... CITY SKY/WX TMP DP RH WIND PRES REMARKS GEORGETOWN NOT AVBL KINGSTREE FAIR 39 36 87 CALM 30.19S ORANGEBURG CLOUDY 46 37 71 CALM 30.20R BARNWELL NOT AVBL AIKEN FAIR 43 36 75 CALM 30.23S MANNING NOT AVBL COLUMBIA PTCLDY 47 36 65 W5 30.19S SUMTER CLEAR 45 37 72 CALM 30.17R FLORENCE PTCLDY 45 38 76 CALM 30.18R MYRTLE BEACH CLEAR 46 37 71 W6 30.20R N MYRTLE BEACH PTCLDY 45 41 86 W3 30.18R $$ GAZ063-065-086>088-099>101-113>116-118-119-134>141-150-030200- ...SOUTHEAST GEORGIA... CITY SKY/WX TMP DP RH WIND PRES REMARKS SAVANNAH ARPT PTCLDY 46 39 76 CALM 30.22R HUNTER AAF CLOUDY 48 42 80 CALM 30.19R FORT STEWART CLEAR 45 40 82 CALM 30.19R STATESBORO CLEAR 43 42 95 CALM 30.21S SYLVANIA CLEAR N/A N/A N/A CALM 30.22R CLAXTON FAIR 42 42 100 CALM 30.21S ...CSRA...CENTRAL AND FAR SOUTHEAST GEORGIA... CITY SKY/WX TMP DP RH WIND PRES REMARKS THOMSON CLEAR 44 39 83 CALM 30.25S AUGUSTA-BUSH PTCLDY 45 35 68 CALM 30.20S AUGUSTA-DANIEL CLOUDY 52 33 48 CALM 30.20F SWAINSBORO FAIR 43 36 75 CALM 30.21F VIDALIA CLOUDY 54 36 50 NW3 30.21R EASTMAN FAIR 46 31 56 CALM 30.25R HAZLEHURST FAIR 53 36 52 N3 30.21R ALMA PTCLDY 46 40 79 CALM 30.22R WAYCROSS PTCLDY 53 43 70 N3 30.22R JESUP FAIR 45 43 93 CALM 30.23R BAXLEY FAIR 48 41 76 CALM 30.22R BRUNSWICK MOCLDY 50 45 81 CALM 30.22R SAINT SIMONS PTCLDY 55 40 56 N3 30.20R $$ SCZ027-028-034-036>038-045-046-048>050-GAZ119-141-030200- ...LAKE AND SUPPLEMENTAL COASTAL OBSERVATIONS... STATION/POSITION TIME TEMP WIND PRES WAVE SWELL AIR SEA DIR/SP/G HT/PER HT/PER/DIR (UTC) (F) (DEG/KT/KT) (MB) (FT/S) (FT/S/D) WINYAH BAY NOT AVBL LAKE MURRAY 0020 55 260/ 5/ 5 1021.7 ACE BASIN NERRS 2345 47 CALM 1021.0 FORT PULASKI 0036 55 63 360/ 4/ 5 1022.6R SAPELO ISLAND 0000 53 360/ 1 1022.0 $$ ANZ835-935-AMZ111-154-330-350-352-354-370-450-454-472-030200- ...C-MAN AND BUOY OBSERVATIONS... STATION/POSITION TIME TEMP WIND PRES WAVE SWELL AIR SEA DIR/SP/G HT/PER HT/PER/DIR (UTC) (F) (DEG/KT/KT) (MB) (FT/S) (FT/S/D) BUOY 41004 0050 60 75 340/ 12/ 16 1021.2R 3/ 5 2/110/ 9 BUOY 41008 0050 61 65 350/ 12/ 14 1022.2R 2/ 9 2/140/ 9 FOLLY BEACH CMAN 0000 55 310/ 2/ 3 1022.4R CAPERS NEARSHORE 0008 58 63 340/ 8/ 12 1021.6R FRIPP NEARSHORE 0008 59 63 330/ 8/ 10 1021.6R STATION/POSITION TIME TEMP WIND PRES WAVE SWELL AIR SEA DIR/SP/G HT/PER HT/PER/DIR (UTC) (F) (DEG/KT/KT) (MB) (FT/S) (FT/S/D) 5E ST. MARYS GA 0030 66 N/A 2/ 8 FRYING PAN BUOY 0050 60 74 310/ 16/ 21 1020.5R 3/ 8 2/130/ 8 BUOY 41025 0050 57 75 310/ 17/ 23 1018.8R 4/ 7 2/110/ 7 CAPE LOOKOUT NC 0000 55 300/ 14/ 16 1019.5R BUOY 41002 0050 69 74 340/ 14/ 17 1018.1R 4/ 6 3/270/ 6 BUOY 41010 NOT AVBL ST AUGUSTINE FL 0100 63 67 360/ 11/ 12 1023.0R $$

USA.gov is the U.S. government's official web portal to all federal, state and local government web resources and services.